Theta_e
311 310 311 311 308 307 309 309 309 309 304 305 306 307 308 308 308 307 307 308 307 307 307 305 305 312 323 325 326 325 324 322 319 315 312 309 309 308 307 307 305 308 309 310
310 313 310 309 308 307 306 307 308 306 303 304 305 306 307 307 307 307 307 308 308 308 308 307 304 306 316 322 325 325 324 322 319 316 313 310 310 308 308 306 305 307 309 310
307 308 309 308 306 306 307 307 308 307 304 304 304 306 308 308 307 307 307 308 309 309 309 308 307 305 311 318 322 324 323 321 318 317 311 310 308 307 307 307 307 307 308 310
307 306 309 311 308 307 309 307 306 305 306 309 305 310 311 310 310 309 308 308 308 309 308 308 308 305 310 316 320 322 323 320 319 316 312 310 311 309 308 307 307 307 308 309
305 306 307 310 311 308 308 307 305 306 307 308 308 307 310 311 310 312 312 310 310 311 311 309 307 306 308 315 319 321 321 319 318 315 314 312 312 311 309 308 307 307 307 309
306 305 307 308 310 309 306 305 305 305 307 311 310 309 311 312 311 311 313 313 314 313 310 308 307 305 307 314 319 320 320 318 316 315 315 314 313 310 308 308 307 307 307 308
303 306 307 308 309 308 307 307 313 313 312 315 310 310 311 313 312 312 313 314 312 311 308 307 306 304 305 314 318 319 318 317 314 315 314 314 313 310 309 308 307 307 307 308
307 307 308 306 310 309 308 310 314 312 314 310 306 313 313 311 311 312 312 312 310 306 305 304 303 304 305 315 318 317 317 316 313 313 313 313 312 311 309 309 307 306 307 307
308 306 307 307 308 308 308 311 310 311 303 313 313 312 311 311 310 309 308 308 309 310 307 305 301 304 307 314 317 316 316 315 312 313 312 312 312 311 310 309 307 306 306 306
297 310 305 307 307 308 307 309 312 315 317 317 315 314 315 313 312 311 310 308 308 308 307 303 301 306 311 313 315 314 315 314 312 312 312 311 311 312 312 309 307 306 305 305
299 306 307 308 308 310 310 310 310 312 312 316 314 312 312 314 311 308 308 306 308 309 305 302 305 311 313 314 314 313 314 312 311 311 311 311 311 311 311 309 308 306 304 305
298 307 308 308 308 308 309 308 310 315 316 312 311 311 305 307 307 306 306 302 303 305 303 303 310 312 313 314 312 312 313 311 310 310 310 310 310 310 310 308 307 305 304 305
302 308 308 309 308 306 310 309 310 311 312 315 315 310 305 305 306 305 305 304 305 304 305 308 309 311 313 312 311 311 311 311 310 310 310 309 309 310 309 308 307 305 303 304
300 303 308 306 307 308 309 310 310 311 315 313 313 311 308 307 306 307 306 306 307 306 306 308 307 308 309 310 309 309 309 310 309 309 309 308 309 309 308 308 307 305 303 304
300 300 300 302 307 306 308 309 310 311 312 314 311 311 308 307 306 305 306 307 308 307 307 307 308 307 306 307 308 308 307 307 308 308 308 308 309 308 308 308 306 304 303 304
299 301 300 301 302 302 308 308 310 309 310 311 308 310 305 305 304 306 306 308 308 308 307 307 307 306 306 305 306 306 306 307 307 308 309 308 308 307 308 308 306 303 304 304
298 299 300 300 299 302 305 305 307 309 308 309 309 308 306 306 306 306 305 306 307 308 308 308 308 307 306 306 306 306 306 307 307 307 307 306 306 306 307 308 305 303 304 304
297 297 299 299 299 304 300 302 301 304 304 304 306 307 306 307 306 305 304 305 304 304 304 306 307 307 307 306 306 306 305 305 306 306 305 305 306 306 306 305 304 304 304 304
296 297 297 298 299 298 301 303 304 305 307 302 305 306 306 305 305 305 303 303 304 304 303 303 302 305 306 307 306 305 305 305 306 305 305 304 305 305 304 304 303 303 303 304
295 296 295 296 298 297 301 303 301 302 304 301 301 305 306 303 307 308 303 303 303 302 301 301 301 301 305 305 306 305 305 304 305 305 305 306 306 305 304 304 303 302 303 304
295 295 295 295 296 296 297 302 300 297 305 301 301 302 303 305 304 302 302 300 300 301 300 299 299 301 301 303 305 305 304 304 305 305 305 305 304 304 305 304 303 303 302 303
294 295 295 294 295 295 294 298 295 299 302 301 302 302 302 300 300 299 298 298 298 300 300 298 299 299 299 301 303 303 303 306 306 306 305 305 305 304 303 303 303 302 302 302
293 295 295 294 294 294 293 295 295 299 300 299 302 302 301 300 300 298 298 297 296 296 298 297 297 298 298 300 302 302 303 304 305 304 304 305 304 304 303 303 302 301 301 301
290 291 294 294 295 294 294 293 293 293 294 295 295 297 299 297 298 298 298 296 296 295 295 297 298 297 297 297 299 301 302 302 303 303 303 302 302 301 302 301 302 301 300 300
292 291 292 292 292 292 293 293 293 293 292 291 292 293 296 298 298 298 297 297 295 294 293 295 296 296 297 298 298 297 299 300 301 301 301 300 300 300 299 300 301 300 301 301
290 291 292 293 293 292 292 293 292 292 292 292 291 291 293 295 297 297 297 295 294 294 293 293 293 293 293 296 298 298 297 297 299 299 299 299 298 298 298 298 298 299 300 301
Wind_Speed
14 13 22 28 25 18 18 20 17 11 7 10 17 22 22 18 20 18 18 16 16 17 14 17 23 26 26 26 28 29 29 27 26 23 20 15 15 13 12 11 11 10 8 7
15 28 22 17 22 22 21 20 21 10 5 9 10 18 18 19 18 20 21 21 20 18 14 14 19 22 28 29 30 30 31 30 29 25 23 14 17 13 12 13 13 12 10 8
26 16 23 17 18 23 26 27 21 14 3 6 8 17 21 18 20 21 20 21 20 20 19 17 17 24 24 29 32 32 32 32 31 27 23 18 15 13 12 14 13 14 12 11
22 27 27 24 29 25 26 20 18 13 8 11 3 12 20 10 17 20 20 19 20 21 19 18 17 22 27 30 30 33 33 33 33 31 29 27 23 19 15 17 14 14 14 12
20 12 27 28 28 22 19 10 14 18 16 15 17 8 14 10 20 24 18 18 20 21 21 21 20 26 29 29 32 33 34 34 34 37 33 29 23 18 17 16 17 15 15 14
31 9 15 31 21 21 9 9 6 4 8 9 24 17 18 20 18 19 17 19 19 18 16 16 20 22 25 27 29 30 33 34 36 37 37 32 26 22 20 19 19 16 15 16
28 30 19 10 22 19 21 19 6 6 6 16 5 15 24 12 9 14 14 14 13 11 12 14 16 15 24 30 32 32 34 34 35 35 34 34 29 26 25 25 22 20 17 16
18 20 32 16 25 21 27 23 8 11 9 12 6 13 8 15 17 16 21 16 8 7 9 9 13 14 22 29 34 33 35 34 36 37 37 35 32 29 24 27 25 22 19 18
11 19 12 27 20 22 22 21 25 4 2 3 10 14 12 13 14 12 16 13 15 15 11 9 9 15 22 27 32 34 35 33 35 36 34 34 32 29 27 26 24 22 19 19
12 9 23 24 19 18 19 24 15 8 9 8 10 12 12 6 14 13 13 12 13 14 10 7 9 12 19 23 25 26 29 31 33 33 33 33 32 33 30 27 25 23 21 22
18 13 7 17 17 22 16 17 20 18 10 10 7 7 5 15 5 3 4 6 10 12 10 8 8 13 17 21 23 23 27 28 30 31 31 32 33 32 31 28 25 24 23 22
21 6 11 13 22 25 23 23 24 13 18 11 4 4 3 6 7 6 4 2 3 6 9 9 9 13 17 19 21 23 25 27 30 30 29 30 30 30 30 26 25 25 24 24
12 6 11 6 10 10 20 22 25 25 15 13 10 5 3 6 3 3 2 1 5 7 10 10 10 11 13 17 19 21 24 25 27 29 28 26 29 32 29 26 26 27 26 25
10 7 7 14 8 11 22 23 22 24 13 20 17 5 2 5 5 3 3 3 6 7 8 9 9 9 11 14 17 19 21 22 25 25 27 29 30 32 29 27 27 27 28 27
3 5 6 12 6 7 18 22 25 20 26 16 14 9 3 4 2 1 1 4 8 6 6 7 8 8 8 11 12 15 18 20 23 25 25 25 27 27 28 28 27 27 28 27
4 2 5 7 3 4 4 15 18 19 19 18 1 7 1 2 1 4 4 6 9 8 6 6 7 8 9 12 13 15 18 21 21 21 23 24 28 31 32 31 29 28 27 27
6 5 5 3 8 1 3 3 12 17 16 16 11 9 1 3 5 7 6 6 7 8 8 7 7 7 10 13 15 16 18 23 19 20 20 23 25 29 32 33 31 30 29 28
6 7 3 3 4 3 2 6 9 3 4 5 8 8 8 5 3 5 5 6 6 6 7 7 5 6 8 10 12 15 17 19 18 18 20 23 26 28 30 32 30 28 27 27
8 3 3 3 2 4 1 3 0 3 7 10 5 10 8 4 3 4 0 2 3 3 3 4 5 7 9 12 13 15 16 17 18 18 19 21 24 26 30 28 28 26 27 25
6 2 1 2 3 2 3 5 5 4 3 10 6 9 11 7 7 7 6 3 3 4 5 5 4 5 9 11 13 13 14 16 18 20 21 25 28 29 28 30 29 30 30 30
3 2 7 5 4 5 4 7 0 1 3 6 11 7 2 4 3 5 6 7 4 4 5 5 5 4 3 11 15 13 13 14 16 22 24 25 26 27 28 31 32 34 30 31
5 6 4 3 3 5 0 4 3 4 8 3 10 9 12 8 9 10 7 6 7 6 8 8 4 3 3 6 11 13 12 14 15 19 22 25 27 28 28 30 32 31 32 31
5 5 3 7 4 3 2 3 3 2 3 4 4 7 13 11 14 10 9 9 7 7 7 6 8 7 4 4 8 9 10 13 16 17 21 24 26 28 30 32 32 30 29 28
5 4 4 2 5 8 8 6 3 4 5 2 3 5 4 4 2 14 8 6 8 5 6 4 6 10 11 5 3 5 7 11 15 18 19 22 25 27 29 30 33 33 30 26
5 8 6 5 9 5 11 9 10 9 4 5 5 6 5 5 8 8 6 11 5 6 4 5 4 8 13 9 5 2 7 8 11 13 16 20 24 26 27 28 33 32 34 37
6 6 7 7 7 7 10 7 6 8 10 10 8 6 6 5 6 8 7 8 13 14 10 8 8 5 16 15 12 7 5 8 11 13 16 19 21 24 23 23 24 29 30 34
Wind_Direction
200 218 217 214 214 227 250 238 235 226 214 209 234 250 255 249 253 245 249 244 239 238 238 228 221 213 208 207 201 197 193 193 186 183 178 182 183 183 182 182 181 177 176 164
227 232 230 233 223 224 228 235 239 262 183 210 253 262 258 256 250 248 240 242 240 240 228 220 209 204 206 206 204 198 194 191 189 187 185 183 177 185 185 183 184 182 178 172
234 235 222 226 213 216 222 226 228 240 155 228 281 270 262 250 243 247 239 244 245 239 235 225 206 203 201 204 203 199 195 191 190 186 180 174 167 167 174 183 184 186 181 180
253 242 247 221 223 213 227 224 241 242 249 251 206 279 266 240 246 238 238 232 237 235 231 230 212 202 202 203 199 198 195 191 189 184 185 183 180 176 189 185 184 183 184 183
224 218 216 232 228 217 235 203 209 227 245 274 245 265 265 238 241 245 233 231 231 232 229 222 214 205 201 196 195 195 193 191 187 189 189 185 186 184 177 178 179 181 184 184
247 239 231 232 223 222 172 150 146 195 225 247 236 224 262 243 232 248 245 239 236 234 227 225 216 211 198 193 191 190 190 189 186 187 189 188 185 175 171 177 178 179 183 185
233 237 242 232 207 200 193 179 169 186 190 239 183 217 241 255 236 246 259 250 238 233 213 214 203 194 192 187 188 186 188 187 187 187 187 189 188 184 182 179 179 178 181 184
213 225 224 202 210 203 202 184 184 192 202 231 132 233 248 234 248 254 243 251 232 203 191 196 203 199 191 185 184 183 186 183 181 184 187 186 188 187 185 187 186 184 184 185
243 226 212 205 204 207 201 209 210 114 60 219 216 244 276 260 261 231 240 230 232 233 215 203 190 193 189 186 185 183 183 181 181 183 182 184 187 187 186 188 189 188 183 180
291 279 208 196 208 216 191 203 195 215 206 222 225 243 242 226 245 245 244 223 235 232 214 183 182 183 184 184 183 182 185 183 179 179 181 183 186 192 191 187 185 187 182 181
277 235 260 184 196 196 196 196 208 215 228 222 250 238 213 233 255 274 271 297 242 220 190 164 165 169 172 172 174 177 181 176 175 177 178 181 186 189 189 187 186 184 180 179
279 274 239 241 213 204 204 203 204 205 205 229 301 250 346 308 297 268 291 335 54 144 141 136 148 155 162 166 169 173 175 173 174 174 176 180 181 187 187 184 183 182 180 181
336 213 231 187 222 213 210 211 207 221 227 216 212 199 350 354 357 40 105 94 114 118 119 125 145 156 163 168 168 175 174 175 171 171 173 176 180 185 184 183 182 181 182 182
310 296 253 231 248 184 201 207 215 216 214 225 218 223 105 348 346 34 82 125 108 112 127 136 142 153 162 167 170 171 170 170 168 171 172 175 181 184 184 182 182 181 183 182
237 290 329 281 271 288 211 197 211 220 225 222 219 212 236 359 339 41 91 146 123 108 122 135 145 152 160 161 153 160 166 165 170 170 173 177 178 180 182 182 182 183 183 184
303 292 291 8 317 35 295 223 209 216 224 240 115 224 30 94 63 88 109 149 123 124 129 137 143 150 161 168 164 159 162 164 166 172 174 174 176 180 185 184 184 183 183 183
314 319 341 344 330 208 269 316 227 219 220 225 217 226 210 143 144 120 126 106 109 123 133 143 156 162 162 167 166 171 167 171 170 171 170 172 174 178 183 186 184 184 183 183
291 303 315 283 306 253 332 279 259 269 248 265 273 258 218 199 89 118 105 121 118 120 123 125 141 147 156 158 160 158 164 166 167 171 173 175 176 178 182 185 184 182 182 183
210 275 298 298 341 310 158 348 249 224 156 23 296 241 232 145 147 144 233 92 107 102 104 120 131 136 150 159 161 161 163 166 169 172 174 177 177 176 180 181 180 181 181 181
202 188 310 329 254 250 165 200 233 186 136 14 337 250 229 164 195 181 144 103 51 60 90 106 110 121 144 158 162 162 169 173 178 179 182 182 182 182 181 184 184 185 187 187
200 195 233 264 282 290 230 185 271 0 73 18 37 32 254 211 343 358 93 68 43 22 28 64 79 92 131 168 169 167 176 190 187 187 187 186 187 186 186 187 188 192 189 192
207 187 195 163 274 269 215 124 308 335 149 160 121 83 29 37 55 51 34 39 34 21 15 34 61 69 89 164 175 173 190 199 194 190 191 192 192 192 187 188 192 190 191 190
228 210 201 210 221 340 343 354 13 31 9 352 23 76 96 1 344 12 15 16 20 15 3 22 37 28 47 137 162 171 191 191 190 191 194 195 196 197 196 192 190 189 190 185
232 182 220 200 242 249 278 293 295 333 334 340 345 349 90 117 303 325 331 334 335 339 341 360 0 355 351 14 186 179 162 177 185 189 195 198 196 198 199 198 197 191 189 187
205 159 209 247 276 303 275 283 297 306 299 277 258 262 258 194 204 224 244 297 274 289 304 303 329 339 328 331 341 271 213 193 188 189 194 199 201 200 198 200 200 198 203 199
191 182 202 227 225 228 264 268 275 286 293 299 290 261 240 231 218 208 228 251 288 300 301 276 282 301 328 311 307 312 269 219 207 196 195 202 199 198 198 199 203 208 214 210